Atlantic City, NJ

1:22 PM EDT on October 20, 2017 (GMT -0400)
Atlantic City International

Weather History for KACY - April, 2013

Change the Weather History Date:

Friday, April 26, 2013

  Actual Average Record
Temperature  
Mean Temperature 53 °F 55 °F  
Max Temperature 67 °F 65 °F 92 °F (2009)
Min Temperature 38 °F 45 °F 28 °F (1967)
Degree Days  
Heating Degree Days 12 10  
Month to date heating degree days 368 368  
Since 1 July heating degree days 4590 4665  
Cooling Degree Days 0 0  
Month to date cooling degree days 15 0  
Year to date cooling degree days 15 0  
Growing Degree Days 2 (Base 50)    
Moisture  
Dew Point 34 °F    
Average Humidity 55    
Maximum Humidity 85    
Minimum Humidity 25    
Precipitation  
Precipitation 0.00 in 0.12 in 1.47 in (1939)
Month to date precipitation 1.98 3.21  
Year to date precipitation 14.10 13.51  
Snow  
Snow 0.00 in 0.00 in 0.00 in ()
Month to date snowfall 0.0 0.3  
Since 1 July snowfall 14.6 16.5  
Snow Depth 0.00 in    
Sea Level Pressure  
Sea Level Pressure 30.37 in    
Wind  
Wind Speed 6 mph (NW)    
Max Wind Speed 16 mph    
Max Gust Speed 20 mph    
Visibility 10 miles    
Events      
T = Trace of Precipitation, MM = Missing Value Source: NWS Daily Summary

Daily Weather History Graph

Daily Weather History Graph

Search for Another Location

Airport or City:

Trip Planner

Search our weather history database for the weather conditions in past years. The results will help you decide how hot, cold, wet, or windy it might be!

Date:

Astronomy

Apr. 26, 2013 Rise Set
Actual Time 6:05 AM EDT 7:47 PM EDT
Civil Twilight 5:36 AM EDT 8:15 PM EDT
Nautical Twilight 5:02 AM EDT 8:50 PM EDT
Astronomical Twilight 4:25 AM EDT 9:27 PM EDT
Moon 9:06 PM EDT (4/26) 6:31 AM EDT (4/26)
Length of Visible Light 14h 39m
Length of Day
13h 41m
Full, 99% of the Moon is Illuminated
Apr 26
Full
May 2
Last Quarter
May 9
New
May 18
First Quarter
May 25
Full

Hourly Weather History & Observations

Time (EDT) Temp. Windchill Dew Point Humidity Pressure Visibility Wind Dir Wind Speed Gust Speed Precip Events Conditions
12:54 AM 39.9 °F - 30.9 °F 70% 30.31 in 10.0 mi Calm Calm - N/A   Clear
1:54 AM 37.9 °F - 32.0 °F 79% 30.30 in 10.0 mi Calm Calm - N/A   Clear
2:54 AM 39.0 °F - 33.1 °F 79% 30.31 in 10.0 mi Calm Calm - N/A   Clear
3:54 AM 45.0 °F 43.5 °F 39.0 °F 80% 30.32 in 10.0 mi West 3.5 mph - N/A   Clear
5:54 AM 37.9 °F 35.5 °F 34.0 °F 86% 30.35 in 10.0 mi West 3.5 mph - N/A   Clear
7:54 AM 50.0 °F - 37.0 °F 61% 30.39 in 10.0 mi NNW 9.2 mph - N/A   Clear
8:54 AM 57.0 °F - 34.0 °F 42% 30.40 in 10.0 mi NNW 10.4 mph - N/A   Clear
10:54 AM 62.1 °F - 33.1 °F 34% 30.41 in 10.0 mi NNW 10.4 mph - N/A   Clear
11:54 AM 64.0 °F - 32.0 °F 30% 30.40 in 10.0 mi Variable 6.9 mph - N/A   Clear
12:54 PM 64.9 °F - 28.9 °F 26% 30.38 in 10.0 mi Variable 5.8 mph - N/A   Clear
1:54 PM 66.0 °F - 30.0 °F 26% 30.37 in 10.0 mi West 10.4 mph 17.3 mph N/A   Clear
2:54 PM 62.1 °F - 36.0 °F 38% 30.37 in 10.0 mi SSE 13.8 mph - N/A   Partly Cloudy
3:54 PM 63.0 °F - 36.0 °F 37% 30.35 in 10.0 mi South 10.4 mph - N/A   Partly Cloudy
4:54 PM 66.0 °F - 30.9 °F 27% 30.35 in 10.0 mi West 6.9 mph 18.4 mph N/A   Partly Cloudy
5:54 PM 64.9 °F - 28.9 °F 26% 30.36 in 10.0 mi NW 8.1 mph - N/A   Clear
6:54 PM 62.1 °F - 27.0 °F 26% 30.36 in 10.0 mi NNW 9.2 mph - N/A   Clear
7:54 PM 54.0 °F - 30.0 °F 40% 30.38 in 10.0 mi NE 6.9 mph - N/A   Clear
8:54 PM 51.1 °F - 41.0 °F 68% 30.40 in 10.0 mi Calm Calm - N/A   Clear
9:54 PM 46.9 °F - 39.0 °F 74% 30.41 in 10.0 mi Calm Calm - N/A   Clear
10:54 PM 48.9 °F - 42.1 °F 77% 30.42 in 10.0 mi Calm Calm - N/A   Clear
11:54 PM 46.0 °F - 37.9 °F 73% 30.41 in 10.0 mi Calm Calm - N/A   Clear